Weather observations for the past three days for
Buffalo
Metric (Imperial)
Date Time (mdt) Wind (kph) Vis. (km) Weather Sky Cond. Temperature (ºC) Relative Humidity Wind Chill (°C) Heat Index (°C) Pressure Precipitation (cm)
Air Dwpt 6 hour altimeter (cm) sea level (mb) 1 hr 3 hr 6 hr
Max. Min.
04 17:56 NW 43 G 59 0.00 Windy NULL 10 -3.9 12.2 9.4 38% 6 75.72 1010.3
04 16:56 N 43 G 57 0.00 Windy NULL 11.7 -3.9 34% 75.69 1009.8
04 15:56 NW 44 G 69 0.00 Windy NULL 11.7 -3.9 34% 75.72 1010.3
04 14:56 NW 50 G 70 0.00 Windy NULL 10.6 -3.3 38% 75.77 1010.5
04 13:56 NW 39 G 63 0.00 Breezy NULL 10.6 -2.8 39% 75.77 1010.4
04 12:56 NW 48 G 65 0.00 Windy NULL 11.1 -3.3 37% 75.77 1010.1
04 11:56 NW 46 G 63 0.00 Windy NULL 11.1 -3.3 11.1 6.7 37% 75.77 1010.4
04 10:56 NW 44 G 65 0.00 Windy NULL 11.1 -2.8 38% 75.77 1010.2
04 09:56 NW 37 G 56 0.00 Breezy NULL 9.4 -1.7 46% 6 75.77 1010.5
04 08:56 N 26 0.00 NULL NULL 7.8 0.6 61% 4 75.77 1010.4
04 07:56 NW 35 G 50 0.00 Breezy NULL 7.8 1.7 66% 4 75.69 1009.2
04 06:56 NW 31 0.00 NULL NULL 7.2 1.1 66% 3 75.67 1008.2
04 05:56 NW 28 0.00 NULL NULL 6.7 -1.1 12.8 5 58% 3 75.62 1007.7
04 04:56 N 22 0.00 NULL NULL 5.6 0 68% 2 75.59 1007.4
04 03:56 NW 9 0.00 NULL NULL 5 1.1 76% 3 75.49 1005.9
04 02:56 NE 13 0.00 NULL NULL 7.8 1.7 66% 6 75.41 1004.6
04 01:56 N 24 0.00 NULL NULL 10 0.6 52% 7 75.36 1003.8
04 00:56 NW 22 0.00 NULL NULL 11.1 0 47% 75.31 1003.0
03 23:56 W 24 0.00 NULL NULL 9.4 0.6 21.1 9.4 55% 7 75.29 1003.1
03 22:56 W 17 0.00 NULL NULL 10.6 0.6 50% 75.29 1003.0
03 21:56 W 15 0.00 NULL NULL 10.6 0.6 50% 75.34 1003.7
03 20:56 W 20 0.00 NULL NULL 11.7 1.7 51% 75.36 1004.2
03 19:56 NW 22 0.00 NULL NULL 15.6 2.8 42% 75.36 1004.4
03 18:56 NW 22 0.00 NULL NULL 19.4 1.1 30% 75.39 1004.5
03 17:56 NW 35 G 46 0.00 Breezy NULL 21.1 0.6 22.8 18.9 26% 75.41 1004.9
03 16:56 W 28 G 48 0.00 NULL NULL 21.7 1.1 26% 75.46 1005.7
03 15:56 W 39 G 48 0.00 Breezy NULL 21.7 0.6 25% 75.51 1006.1
03 14:56 W 31 G 46 0.00 NULL NULL 20.6 1.7 29% 75.62 1007.6
03 13:56 W 33 G 41 0.00 Breezy NULL 21.1 2.2 29% 75.69 1008.7
03 12:56 W 24 G 44 0.00 NULL NULL 20.6 1.7 29% 75.79 1009.8
03 11:56 W 13 G 37 0.00 NULL NULL 18.9 0.6 19.4 5 29% 75.9 1011.5
03 10:56 W 17 0.00 NULL NULL 17.8 0 30% 76 1012.7
03 09:56 SW 13 0.00 NULL NULL 16.7 0 32% 76.02 1013.0
03 08:56 SW 7 0.00 NULL NULL 13.9 2.2 45% 76.07 1013.9
03 07:56 W 9 0.00 NULL NULL 10.6 1.7 54% 76.12 1014.8
03 06:56 SW 9 0.00 NULL NULL 6.7 1.1 68% 5 76.12 1014.9
03 05:56 W 7 0.00 NULL NULL 6.1 0 8.9 4.4 65% 5 76.12 1014.6
03 04:56 W 9 0.00 NULL NULL 4.4 0 73% 2 76.15 1015.2
03 03:56 NW 6 0.00 NULL NULL 7.8 -1.7 51% 76.15 1014.6
03 02:56 W 7 0.00 NULL NULL 6.7 -0.6 60% 6 76.15 1014.7
03 01:56 W 7 0.00 NULL NULL 6.7 -0.6 60% 6 76.15 1014.8
03 00:56 N 20 0.00 NULL NULL 8.9 -1.1 50% 6 76.15 1014.4
02 23:56 N 20 0.00 NULL NULL 8.9 0 20 8.9 54% 6 76.12 1014.1
02 22:56 N 22 0.00 NULL NULL 10 0.6 52% 7 76.1 1014.0
02 21:56 N 20 0.00 NULL NULL 11.7 0.6 47% 76.1 1013.9
02 20:56 N 20 0.00 NULL NULL 12.2 1.1 47% 76.07 1013.8
02 19:56 N 20 0.00 NULL NULL 13.9 2.2 45% 76.05 1013.5
02 18:56 N 30 0.00 NULL NULL 17.8 1.1 33% 76 1013.2
02 17:56 NW 37 G 46 0.00 Breezy NULL 20 1.7 22.2 19.4 30% 75.97 1013.1
02 16:56 NW 31 G 52 0.00 NULL NULL 20 1.7 30% 75.97 1012.7
02 15:56 NW 35 G 48 0.00 Breezy NULL 21.7 1.7 27% 75.95 1012.3
02 14:56 N 31 G 44 0.00 NULL NULL 21.7 1.7 27% 75.95 1012.4
02 13:56 NW 37 G 50 0.00 Breezy NULL 21.7 1.7 27% 75.95 1012.1
02 12:56 NW 33 G 46 0.00 Breezy NULL 21.7 0 24% 75.97 1012.4
02 11:56 NW 30 G 44 0.00 NULL NULL 21.7 0.6 21.7 1.1 25% 75.97 1012.6
02 10:56 W 37 G 50 0.00 Breezy NULL 21.1 -0.6 23% 76 1012.8
02 09:56 W 35 0.00 Breezy NULL 18.9 0.6 29% 76.02 1013.1
02 08:56 W 30 G 41 0.00 NULL NULL 15.6 -0.6 33% 76.05 1014.0
02 07:56 W 33 0.00 Breezy NULL 11.1 -1.1 43% 76.1 1014.6
02 06:56 Calm 0.00 NULL NULL 5 -2.8 57% 76.15 1015.9
02 05:56 NE 6 0.00 NULL NULL 1.7 -3.9 6.1 1.7 67% 76.17 1016.6
02 04:56 SW 7 0.00 NULL NULL 2.8 -3.3 65% 1 76.2 1016.7
02 03:56 SW 11 0.00 NULL NULL 3.3 -3.3 62% 1 76.25 1017.3
02 02:56 S 20 0.00 NULL NULL 3.9 -3.3 60% 0 76.28 1017.7
02 01:56 S 17 0.00 NULL NULL 4.4 -3.3 58% 1 76.35 1018.7
02 00:56 S 20 0.00 NULL NULL 5 -2.8 57% 1 76.38 1019.1
01 23:56 S 19 0.00 NULL NULL 5 -2.8 14.4 4.4 57% 2 76.4 1019.5
01 22:56 S 17 0.00 NULL NULL 5 -2.8 57% 2 76.43 1019.9
01 21:56 SE 15 0.00 NULL NULL 6.1 -2.8 53% 3 76.45 1020.1
01 20:56 SE 15 0.00 NULL NULL 8.3 -3.3 44% 6 76.43 1020.0
01 19:56 E 9 0.00 NULL NULL 11.7 -5 31% 76.4 1019.8
01 18:56 E 9 0.00 NULL NULL 13.9 -5 27% 76.4 1019.8
Date Time (mdt) Wind (kph) Vis. (km) Weather Sky Cond. Air Dwpt Max. Min. Relative Humidity Wind Chill (°C) Heat Index (°C) altimeter (cm) sea level (mb) 1 hr 3 hr 6 hr
6 hour
Temperature (ºC) Pressure Precipitation (cm)